User: anonymous   Login
Location: Unspecified
(40.7945°N, 0.0000°E)
Time: 04:49:39
(UTC+00:00)
Language:

ITAMSAT 1 - Orbit

View from above orbital plane
View from above orbital plane
View from above satellite
View from above satellite

Ground track
Ground track

The orbit data is extracted from the following two-line orbital elements,

1 22826U 93061D   19201.88861905 -.00000026  00000-0  77375-5 0  9990
2 22826  98.8984 191.2498 0007836 252.2343 107.7984 14.30396265346757
Epoch (UTC): 20 July 2019 21:19:36
Eccentricity: 0.0007836
inclination: 98.8984°
perigee height: 785 km
apogee height: 796 km
right ascension of ascending node: 191.2498°
argument of perigee: 252.2343°
revolutions per day: 14.30396265
mean anomaly at epoch: 107.7984°
orbit number at epoch: 34675

The dashed part of the orbit path shows where the satellite is in the earth's shadow,  

DLR